Location: Risskov
(56.1972°N, 10.2480°E)
Time: 13:11:10
(UTC+00:00)

MTI - Pass Details

Date: 05 July 2020
Orbit: 393 x 405 km, 97.5° (Epoch: 07 August)

Event Time Altitude Azimuth Distance (km) Brightness Sun altitude
Rises 21:43:32 0° 15° (NNE) 2,324 8.4 -8.3°
Reaches altitude 10° 21:45:31 10° 16° (NNE) 1,458 7.3 -8.4°
Maximum altitude 21:48:38 85° 101° (E) 406 3.6 -8.6°
Drops below altitude 10° 21:51:42 10° 194° (SSW) 1,439 6.0 -8.8°
Enters shadow 21:52:00 - 194° (SSW) 1,567 6.2 -8.8°
